KJ7AZ-3 Weather Reports


Display with metric or nautical units.
time (UTC)temp
F
wind
direction
speed
MPH
gust
MPH
rain 1hr
in
rain 24hr
in
rain mn
in
humidity
%
barometer
mb
20260903124851 58 200 0.0 0.0 0.00 0.00 0.00
20260903123352 61 200 0.0 0.0 0.00 0.00 0.00
20260903121852 63 200 0.0 0.0 0.00 0.00 0.00
20260903120351 61 200 0.0 0.0 0.00 0.00 0.00
20260903114852 60 200 0.0 0.0 0.00 0.00 0.00
20260903113352 61 200 0.0 0.0 0.00 0.00 0.00
20260903111852 64 200 0.0 0.0 0.00 0.00 0.00
20260903110353 64 200 0.0 0.0 0.00 0.00 0.00
20260903104853 65 200 0.0 0.0 0.00 0.00 0.00
20260903103353 64 200 0.0 0.0 0.00 0.00 0.00
20260903101854 63 200 0.0 0.0 0.00 0.00 0.00
20260903100354 64 200 0.0 0.0 0.00 0.00 0.00
20260903094854 63 200 0.0 0.0 0.00 0.00 0.00
20260903093354 63 200 1.0 0.0 0.00 0.00 0.00
20260903091855 64 359 0.0 0.0 0.00 0.00 0.00
20260903090355 64 359 0.0 0.0 0.00 0.00 0.00
20260903084855 64 359 0.0 0.0 0.00 0.00 0.00
20260903083355 63 359 0.0 0.0 0.00 0.00 0.00
20260903081855 62 359 0.0 0.0 0.00 0.00 0.00
20260903080355 64 359 0.0 0.0 0.00 0.00 0.00
20260903074855 65 359 0.0 0.0 0.00 0.00 0.00
20260903073355 66 359 0.0 0.0 0.00 0.00 0.00
20260903071855 65 359 0.0 0.0 0.00 0.00 0.00
20260903070355 64 359 0.0 0.0 0.00 0.00 0.00
20260903064854 66 359 0.0 0.0 0.00 0.00 0.00
20260903063354 67 359 0.0 0.0 0.00 0.00 0.00
20260903061855 67 359 0.0 0.0 0.00 0.00 0.00
20260903060354 69 359 0.0 0.0 0.00 0.00 0.00
20260903054854 69 359 0.0 0.0 0.00 0.00 0.00
20260903053353 67 359 0.0 0.0 0.00 0.00 0.00
20260903051853 67 359 0.0 0.0 0.00 0.00 0.00
20260903050352 69 359 0.0 0.0 0.00 0.00 0.00
20260903044853 69 359 0.0 0.0 0.00 0.00 0.00
20260903043352 71 359 0.0 0.0 0.00 0.00 0.00
20260903041851 72 359 0.0 0.0 0.00 0.00 0.00
20260903040351 73 359 0.0 0.0 0.00 0.00 0.00
20260903034851 73 359 0.0 0.0 0.00 0.00 0.00
20260903033349 74 359 0.0 0.0 0.00 0.00 0.00
20260903031849 73 359 0.0 0.0 0.00 0.00 0.00
20260903030348 73 359 0.0 0.0 0.00 0.00 0.00
20260903024848 74 359 0.0 0.0 0.00 0.00 0.00
20260903021847 77 359 0.0 0.0 0.00 0.00 0.00
20260903014845 80 359 0.0 0.0 0.00 0.00 0.00
20260903013345 82 339 0.0 0.0 0.00 0.00 0.00
20260903011844 83 1 0.0 0.0 0.00 0.00 0.00
20260903010344 86 359 0.0 0.0 0.00 0.00 0.00
20260903004844 85 283 0.0 0.0 0.00 0.00 0.00
20260903003343 87 229 0.0 0.0 0.00 0.00 0.00
20260903001842 88 338 2.0 4.0 0.00 0.00 0.00
20260903000342 90 25 3.0 0.0 0.00 0.00 0.00
20260902234841 86 18 0.0 0.0 0.00 0.00 0.00
20260902233341 86 335 2.0 0.0 0.00 0.00 0.00
20260902231840 87 318 2.0 1.0 0.00 0.00 0.00
20260902230339 90 271 0.0 0.0 0.00 0.00 0.00
20260902224838 87 302 1.0 3.0 0.00 0.00 0.00
20260902223337 93 308 0.0 0.0 0.00 0.00 0.00
20260902221836 94 287 0.0 0.0 0.00 0.00 0.00
20260902220335 93 10 2.0 0.0 0.00 0.00 0.00
20260902213335 88 291 1.0 0.0 0.00 0.00 0.00
20260902211834 86 301 2.0 2.0 0.00 0.00 0.00
20260902210332 85 277 2.0 3.0 0.00 0.00 0.00
20260902204832 87 291 5.0 2.0 0.00 0.00 0.00
20260902203331 88 257 2.0 3.0 0.00 0.00 0.00
20260902201829 87 37 1.0 0.0 0.00 0.00 0.00
20260902200329 87 321 1.0 2.0 0.00 0.00 0.00
20260902194828 89 349 1.0 0.0 0.00 0.00 0.00
20260902193330 91 329 3.0 0.0 0.00 0.00 0.00
20260902191826 88 359 4.0 5.0 0.00 0.00 0.00
20260902190325 91 31 5.0 3.0 0.00 0.00 0.00
20260902184824 89 309 3.0 3.0 0.00 0.00 0.00
20260902183324 87 349 4.0 6.0 0.00 0.00 0.00
20260902181823 84 333 0.0 0.0 0.00 0.00 0.00
20260902180322 85 302 0.0 1.0 0.00 0.00 0.00
20260902174821 87 143 0.0 0.0 0.00 0.00 0.00
20260902173320 86 13 4.0 3.0 0.00 0.00 0.00
20260902170319 85 80 3.0 5.0 0.00 0.00 0.00
20260902164819 83 350 4.0 1.0 0.00 0.00 0.00
20260902163318 82 316 3.0 5.0 0.00 0.00 0.00
20260902161818 83 359 1.0 3.0 0.00 0.00 0.00
20260902160319 82 20 2.0 1.0 0.00 0.00 0.00
20260902153317 79 281 3.0 3.0 0.00 0.00 0.00
20260902151817 78 349 2.0 0.0 0.00 0.00 0.00